Tracking 35237 objects as of 6-Sep-2026
HD Live streaming from Space Station
objects crossing your sky now

FREGAT DEB

Track FREGAT DEB now!
10-day predictions


NORAD ID: 46406
Int'l Code: 2011-037LK
Launch date: July 18, 2011
Source: Commonwealth of Independent States (former USSR) (CIS)
Launch site: TYURATAM MISSILE AND SPACE COMPLEX (TTMTR)

Note: This is SATELLITE DEBRIS
Your satellite tracking list
Your tracking list is empty




NASA's NSSDC Master Catalog

Two Line Element Set (TLE):
1 46406U 11037LM  26244.93584443  .00000432  00000-0  14736-2 0  9992
2 46406  51.5824  89.8923 2012126 234.4831 105.1515 10.21310656226840
Source of the keplerian elements: AFSPC